Observation Tools

Longleaf pine Photo courtesy of Brad Jones.

Longleaf pine (Pinus palustris)


Also Known As: Southern yellow pine, Longstraw pine, Georgia pine
Plant Family: Pine (Pinacae)
Project BudBurst Plant Group: Conifers

Identification Hints: Longleaf pine is a beautiful large "yellow" pine in the Southern US. There are three closely related 3-needle pines in the south: longleaf, slash, and loblolly. Longleaf has needlesup to 46 cm (18 in) long, with stout twigs and silvery buds and cones 15 to 25 cm (6 to 10 in) long with small incurved prickles on the scales. The other pineshave shorter cones 5 to 15 cm (2 to 6 in) with a sharp prickle on the scales, and red-brown buds.

Did you Know? Birds and small mammals eat the large seeds, ants feed on germinating seeds, and razorback hogs eat the roots of seedlings. Longleaf pine needles are used extensively for mulch. In pre-settlement times it was a major source of timber and naval stores (for rosins). It covered over60 million acres, or most of the southern coastal plain. Now fewer than 4 million acres have these valuable pines.


Live Map for Longleaf pine

Other years available for viewing:

Below you can view all observations that have been reported in for Longleaf pine (If the map below is empty then there have not been any observations reported.)

Use the navigation buttons on the left to zoom in/out and pan around. Click on each place marker to get detail information about that observation.

Leaf/Needles/Stalk = Leaf/Needles/Stalk Flower = Flower Pollen = Pollen Fruiting = Fruiting Color = Color

--Back to Top--

close help window button

The table below displays all the data that has been submitted to Project BudBurst. By default, the data is sorted by the date on which the phenophase occurred. Clicking the up and down arrows next to each column name allows you to sort on any value. If there have been more than 10 observations submitted, you can choose how many to display at a time using the "Show __ entries" control. You can also page through the data using the previous and next buttons at the bottom right of the table.

The Search box allows you to search all of the data. Searching by date, species, phenophase, etc. is easy—just start typing and the table will immediately change to contain only observations that contain your search phrase. Do you want to see only 2012 observations? Just type "2012" in the search box. Only want to see maples? Enter "Acer." You can combine searches, too! Searching for "acer 2012" will narrow your results to only the maples that were observed in 2012 (assuming that any observations exist, of course).

Once you have your results in the order desired, you can use any of the buttons above the search box to copy the results to the clipboard; save them as a text, or spreadsheet; or even print them from your browser!

Observational data for Longleaf pine:

help button
Date Contributor Common Name Species Phenophase Latitude Longitude Obs#
Tue Mar 25 00:00:00 GMT 2008 Patti Bayard Longleaf pine Pinus palustris First Leaf 38.755300000000000 -120.615000000000000 1219
Thu Apr 02 00:00:00 GMT 2009 anonymous Longleaf pine Pinus palustris First Pollen 35.779700000000000 -78.643400000000000 5378
Fri Apr 17 00:00:00 GMT 2009 jenulsh@northhempstead.com Longleaf pine Pinus palustris First Needles 40.705500000000000 -73.448900000000000 6384
Wed Feb 18 00:00:00 GMT 2009 yachick05 Longleaf pine Pinus palustris First Ripe Fruit 30.038100000000000 -85.561200000000000 6446
Tue Feb 10 00:00:00 GMT 2009 yachick05 Longleaf pine Pinus palustris First Needles 30.038100000000000 -85.561200000000000 6445
Mon Apr 05 00:00:00 GMT 2010 lenoremartin Longleaf pine Pinus palustris First Pollen 35.913200000000000 -79.055800000000000 9995
Thu Apr 15 00:00:00 GMT 2010 lenoremartin Longleaf pine Pinus palustris Full Pollen 35.913200000000000 -79.055800000000000 9996
Sat Mar 13 00:00:00 GMT 2010 slinkie Longleaf pine Pinus palustris First Needles 29.660800000000000 -81.886200000000000 11132
Mon Apr 19 00:00:00 GMT 2010 slinkie Longleaf pine Pinus palustris First Pollen 29.660800000000000 -81.886200000000000 11133
Mon May 17 00:00:00 GMT 2010 slinkie Longleaf pine Pinus palustris Full Pollen 29.660800000000000 -81.886200000000000 11134
Sat Mar 06 00:00:00 GMT 2010 Stephanio Longleaf pine Pinus palustris First Needles 45.372300000000000 -89.243300000000000 11326
Thu Mar 11 00:00:00 GMT 2010 Stephanio Longleaf pine Pinus palustris First Pollen 45.372300000000000 -89.243300000000000 11327
Mon Mar 15 00:00:00 GMT 2010 Stephanio Longleaf pine Pinus palustris Full Pollen 45.372300000000000 -89.243300000000000 11328
Sat Oct 16 00:00:00 GMT 2010 Stephanio Longleaf pine Pinus palustris First Ripe Fruit 45.372300000000000 -89.243300000000000 11329
Mon Nov 01 00:00:00 GMT 2010 sylbrown Longleaf pine Pinus palustris First Needles 38.990000000000000 -76.840000000000000 11406
Mon Jan 28 00:00:00 GMT 2013 Tankie15 Longleaf pine Pinus palustris First Needles 27.989700000000000 -81.857200000000000 18103
Thu Mar 28 00:00:00 GMT 2013 ncmns Longleaf pine Pinus palustris Pollen (Early) 35.810400000000000 -78.715000000000000 18374
Thu Mar 28 00:00:00 GMT 2013 yrhe Longleaf pine Pinus palustris Pollen (Middle) 38.989700000000000 -76.937800000000000 18376
Thu Mar 28 00:00:00 GMT 2013 ncmns Longleaf pine Pinus palustris Pollen (Early) 35.782700000000000 -78.640400000000000 18369
Thu Apr 11 00:00:00 GMT 2013 ncmns Longleaf pine Pinus palustris Pollen (Middle) 35.782800000000000 -78.639300000000000 18795
Tue Mar 05 00:00:00 GMT 2013 janspaugh Longleaf pine Pinus palustris First Pollen 27.989700000000000 -81.857200000000000 19159
Mon Feb 11 00:00:00 GMT 2013 janspaugh Longleaf pine Pinus palustris Full Pollen 27.989700000000000 -81.857200000000000 19160
Tue Mar 12 00:00:00 GMT 2013 miguelalfonso4 Longleaf pine Pinus palustris Full Pollen 27.989700000000000 -81.857200000000000 19174
Sun Jan 20 00:00:00 GMT 2013 eight229one@yahoo.com Longleaf pine Pinus palustris First Needles 27.989400000000000 -81.858700000000000 19237
Sat Apr 20 00:00:00 GMT 2013 ncmns Longleaf pine Pinus palustris First Needles 35.780500000000000 -78.639000000000000 19397
Tue Jan 01 00:00:00 GMT 2013 cornerstonescience Longleaf pine Pinus palustris Full Fruiting 30.611800000000000 -84.353900000000000 22733
Tue Nov 05 00:00:00 GMT 2013 KateATownsend Longleaf pine Pinus palustris Pollen (Middle) 35.687300000000000 -78.423600000000000 22964
Fri May 02 00:00:00 GMT 2014 benfoti Longleaf pine Pinus palustris First Needles 42.097407000000000 -72.578430000000000 31247
Fri May 02 00:00:00 GMT 2014 benfoti Longleaf pine Pinus palustris Pollen (Early) 42.097407000000000 -72.578430000000000 31248
Fri May 02 00:00:00 GMT 2014 benfoti Longleaf pine Pinus palustris Fruit (None) 42.097407000000000 -72.578430000000000 31249
Fri May 02 00:00:00 GMT 2014 val413 Longleaf pine Pinus palustris First Needles 42.115850000000000 -72.550480000000000 31239
Fri May 02 00:00:00 GMT 2014 val413 Longleaf pine Pinus palustris Pollen (None) 42.115850000000000 -72.550480000000000 31240
Fri May 02 00:00:00 GMT 2014 val413 Longleaf pine Pinus palustris Fruit (Early) 42.115850000000000 -72.550480000000000 31241
Wed May 14 00:00:00 GMT 2014 val413 Longleaf pine Pinus palustris First Needles 42.115850000000000 -72.550480000000000 32295
Wed May 14 00:00:00 GMT 2014 val413 Longleaf pine Pinus palustris Pollen (None) 42.115850000000000 -72.550480000000000 32296
Wed May 14 00:00:00 GMT 2014 val413 Longleaf pine Pinus palustris Fruit (None) 42.115850000000000 -72.550480000000000 32297
Tue May 20 00:00:00 GMT 2014 briecmarie Longleaf pine Pinus palustris First Needles 34.151058000000000 -77.888925000000000 32686
Tue May 20 00:00:00 GMT 2014 briecmarie Longleaf pine Pinus palustris Pollen (Middle) 34.151058000000000 -77.888925000000000 32687
Tue May 20 00:00:00 GMT 2014 briecmarie Longleaf pine Pinus palustris Fruit (Middle) 34.151058000000000 -77.888925000000000 32688
Tue Oct 07 00:00:00 GMT 2014 jlsnyder335_4H_reporter25 Longleaf pine Pinus palustris First Needles (None) 36.041550000000000 -79.377100000000000 36321
Tue Oct 07 00:00:00 GMT 2014 jlsnyder335_4H_reporter25 Longleaf pine Pinus palustris Pollen (None) 36.041550000000000 -79.377100000000000 36322
Tue Oct 07 00:00:00 GMT 2014 jlsnyder335_4H_reporter25 Longleaf pine Pinus palustris Fruit (Middle) 36.041550000000000 -79.377100000000000 36323
Thu Oct 09 00:00:00 GMT 2014 jlsnyder335_4H_reporter18 Longleaf pine Pinus palustris First Needles (None) 35.891909000000000 -79.302516000000000 36516
Thu Oct 09 00:00:00 GMT 2014 jlsnyder335_4H_reporter18 Longleaf pine Pinus palustris Pollen (None) 35.891909000000000 -79.302516000000000 36517
Thu Oct 09 00:00:00 GMT 2014 jlsnyder335_4H_reporter18 Longleaf pine Pinus palustris Fruit (Middle) 35.891909000000000 -79.302516000000000 36518
Fri Oct 03 00:00:00 GMT 2014 AliviaCurnel Longleaf pine Pinus palustris First Needles (None) 37.265500000000000 -88.247570000000000 36968
Fri Oct 03 00:00:00 GMT 2014 AliviaCurnel Longleaf pine Pinus palustris Pollen (None) 37.265500000000000 -88.247570000000000 36969
Fri Oct 03 00:00:00 GMT 2014 AliviaCurnel Longleaf pine Pinus palustris Fruit (None) 37.265500000000000 -88.247570000000000 36970
Wed Jan 28 00:00:00 GMT 2015 JaxZooEdu Longleaf pine Pinus palustris First Pollen 30.402663000000000 -81.641142000000000 43399
Sat May 09 00:00:00 GMT 2015 wxdude225 Longleaf pine Pinus palustris First Needles 43.641470000000000 -70.240880000000000 49552
Fri Jun 12 00:00:00 GMT 2015 wxdude225 Longleaf pine Pinus palustris First Pollen 43.641470000000000 -70.240880000000000 51248
Sun Jun 14 00:00:00 GMT 2015 wxdude225 Longleaf pine Pinus palustris Full Pollen 43.641470000000000 -70.240880000000000 51249
Thu Aug 13 00:00:00 GMT 2015 atajdin Longleaf pine Pinus palustris First Needles (None) 28.494850000000000 -81.449580000000000 52215
Thu Aug 13 00:00:00 GMT 2015 atajdin Longleaf pine Pinus palustris Pollen (None) 28.494850000000000 -81.449580000000000 52216
Thu Aug 13 00:00:00 GMT 2015 atajdin Longleaf pine Pinus palustris Fruit (None) 28.494850000000000 -81.449580000000000 52217
Fri Aug 14 00:00:00 GMT 2015 cornerstonescience Longleaf pine Pinus palustris First Needles 30.611840000000000 -84.353870000000000 52233
Fri Aug 14 00:00:00 GMT 2015 cornerstonescience Longleaf pine Pinus palustris Pollen (None) 30.611840000000000 -84.353870000000000 52234
Fri Aug 14 00:00:00 GMT 2015 cornerstonescience Longleaf pine Pinus palustris Fruit (None) 30.611840000000000 -84.353870000000000 52235
Sun Sep 06 00:00:00 GMT 2015 buffy3kins Longleaf pine Pinus palustris First Needles (None) 37.694031000000000 -97.246819000000000 52776
Sun Sep 06 00:00:00 GMT 2015 buffy3kins Longleaf pine Pinus palustris Pollen (None) 37.694031000000000 -97.246819000000000 52777
Sun Sep 06 00:00:00 GMT 2015 buffy3kins Longleaf pine Pinus palustris Fruit (Middle) 37.694031000000000 -97.246819000000000 52778
Sun Sep 06 00:00:00 GMT 2015 buffy3kins Longleaf pine Pinus palustris Full Fruiting 37.693861000000000 -97.262162000000000 52779
Wed Aug 05 00:00:00 GMT 2015 wxdude225 Longleaf pine Pinus palustris First Ripe Fruit 43.641470000000000 -70.240880000000000 53242
Wed Sep 02 00:00:00 GMT 2015 wxdude225 Longleaf pine Pinus palustris Full Fruiting 43.641470000000000 -70.240880000000000 53243
Tue Sep 22 00:00:00 GMT 2015 lauboo1 Longleaf pine Pinus palustris First Needles (None) 42.587920000000000 -72.599410000000000 53283
Tue Sep 22 00:00:00 GMT 2015 lauboo1 Longleaf pine Pinus palustris Pollen (None) 42.587920000000000 -72.599410000000000 53284
Tue Sep 22 00:00:00 GMT 2015 lauboo1 Longleaf pine Pinus palustris Fruit (None) 42.587920000000000 -72.599410000000000 53285
Mon Dec 14 00:00:00 GMT 2015 FGCU-treecampususa Longleaf pine Pinus palustris First Needles (None) 26.277150000000000 -81.464660000000000 60881
Mon Dec 14 00:00:00 GMT 2015 FGCU-treecampususa Longleaf pine Pinus palustris Pollen (None) 26.277150000000000 -81.464660000000000 60882
Mon Dec 14 00:00:00 GMT 2015 FGCU-treecampususa Longleaf pine Pinus palustris Fruit (Early) 26.277150000000000 -81.464660000000000 60883
Fri Nov 20 00:00:00 GMT 2015 FGCU-treecampususa Longleaf pine Pinus palustris First Needles (None) 26.277030000000000 -81.465430000000000 61070
Fri Nov 20 00:00:00 GMT 2015 FGCU-treecampususa Longleaf pine Pinus palustris Pollen (None) 26.277030000000000 -81.465430000000000 61071
Fri Nov 20 00:00:00 GMT 2015 FGCU-treecampususa Longleaf pine Pinus palustris Fruit (Early) 26.277030000000000 -81.465430000000000 61072
Fri Nov 20 00:00:00 GMT 2015 FGCU-treecampususa Longleaf pine Pinus palustris First Needles (None) 26.276970000000000 -81.465430000000000 61075
Fri Nov 20 00:00:00 GMT 2015 FGCU-treecampususa Longleaf pine Pinus palustris Pollen (None) 26.276970000000000 -81.465430000000000 61076
Fri Nov 20 00:00:00 GMT 2015 FGCU-treecampususa Longleaf pine Pinus palustris Fruit (Early) 26.276970000000000 -81.465430000000000 61077
Fri Nov 20 00:00:00 GMT 2015 FGCU-treecampususa Longleaf pine Pinus palustris First Needles (None) 26.276950000000000 -81.465450000000000 61078
Fri Nov 20 00:00:00 GMT 2015 FGCU-treecampususa Longleaf pine Pinus palustris Pollen (None) 26.276950000000000 -81.465450000000000 61079
Fri Nov 20 00:00:00 GMT 2015 FGCU-treecampususa Longleaf pine Pinus palustris Fruit (Early) 26.276950000000000 -81.465450000000000 61080
Fri Nov 20 00:00:00 GMT 2015 FGCU-treecampususa Longleaf pine Pinus palustris First Needles (None) 26.276790000000000 -81.465170000000000 61106
Fri Nov 20 00:00:00 GMT 2015 FGCU-treecampususa Longleaf pine Pinus palustris Pollen (None) 26.276790000000000 -81.465170000000000 61107
Fri Nov 20 00:00:00 GMT 2015 FGCU-treecampususa Longleaf pine Pinus palustris Fruit (Early) 26.276790000000000 -81.465170000000000 61108
Tue Dec 15 00:00:00 GMT 2015 FGCU-treecampususa Longleaf pine Pinus palustris First Needles (None) 26.276810000000000 -81.465390000000000 61111
Tue Dec 15 00:00:00 GMT 2015 FGCU-treecampususa Longleaf pine Pinus palustris Pollen (None) 26.276810000000000 -81.465390000000000 61112
Tue Dec 15 00:00:00 GMT 2015 FGCU-treecampususa Longleaf pine Pinus palustris Fruit (Early) 26.276810000000000 -81.465390000000000 61113
Fri Nov 20 00:00:00 GMT 2015 FGCU-treecampususa Longleaf pine Pinus palustris First Needles (None) 26.276760000000000 -81.465400000000000 61114
Fri Nov 20 00:00:00 GMT 2015 FGCU-treecampususa Longleaf pine Pinus palustris Pollen (None) 26.276760000000000 -81.465400000000000 61115
Fri Nov 20 00:00:00 GMT 2015 FGCU-treecampususa Longleaf pine Pinus palustris Fruit (Early) 26.276760000000000 -81.465400000000000 61116
Mon Feb 08 00:00:00 GMT 2016 wxdude225 Longleaf pine Pinus palustris Full Fruiting 34.852620000000000 -82.394010000000000 61859
Tue Mar 08 00:00:00 GMT 2016 wxdude225 Longleaf pine Pinus palustris First Needles (None) 34.985038000000000 -81.974080000000000 62329
Tue Mar 08 00:00:00 GMT 2016 wxdude225 Longleaf pine Pinus palustris Pollen (None) 34.985038000000000 -81.974080000000000 62330
Tue Mar 08 00:00:00 GMT 2016 wxdude225 Longleaf pine Pinus palustris Fruit (None) 34.985038000000000 -81.974080000000000 62331
Wed Mar 16 00:00:00 GMT 2016 wxdude225 Longleaf pine Pinus palustris First Pollen 34.852620000000000 -82.394010000000000 62652
Mon Mar 14 00:00:00 GMT 2016 wxdude225 Longleaf pine Pinus palustris Full Pollen 34.852620000000000 -82.394010000000000 62653
Mon Mar 21 00:00:00 GMT 2016 MNC Longleaf pine Pinus palustris First Needles 29.663511000000000 -82.279272000000000 62833
Mon Mar 21 00:00:00 GMT 2016 MNC Longleaf pine Pinus palustris Full Fruiting 29.663511000000000 -82.279272000000000 62834
Sun Apr 24 00:00:00 GMT 2016 netzijulianna Longleaf pine Pinus palustris First Needles 37.668820000000000 -122.080800000000000 65080
Sat May 14 00:00:00 GMT 2016 netzijulianna Longleaf pine Pinus palustris First Ripe Fruit 37.668820000000000 -122.080800000000000 67221
Sat Apr 16 00:00:00 GMT 2016 netzijulianna Longleaf pine Pinus palustris First Needles 37.668820000000000 -122.080800000000000 67624
Sat Apr 16 00:00:00 GMT 2016 netzijulianna Longleaf pine Pinus palustris Pollen (None) 37.668820000000000 -122.080800000000000 67625
Sat Apr 16 00:00:00 GMT 2016 netzijulianna Longleaf pine Pinus palustris Fruit (None) 37.668820000000000 -122.080800000000000 67626
Wed Apr 20 00:00:00 GMT 2016 netzijulianna Longleaf pine Pinus palustris First Needles 37.668820000000000 -122.080800000000000 67631
Wed Apr 20 00:00:00 GMT 2016 netzijulianna Longleaf pine Pinus palustris Pollen (None) 37.668820000000000 -122.080800000000000 67632
Wed Apr 20 00:00:00 GMT 2016 netzijulianna Longleaf pine Pinus palustris Fruit (None) 37.668820000000000 -122.080800000000000 67633
Tue May 24 00:00:00 GMT 2016 netzijulianna Longleaf pine Pinus palustris First Needles 37.668820000000000 -122.080800000000000 67638
Tue May 24 00:00:00 GMT 2016 netzijulianna Longleaf pine Pinus palustris Pollen (None) 37.668820000000000 -122.080800000000000 67639
Tue May 24 00:00:00 GMT 2016 netzijulianna Longleaf pine Pinus palustris Fruit (None) 37.668820000000000 -122.080800000000000 67640
Wed Apr 27 00:00:00 GMT 2016 netzijulianna Longleaf pine Pinus palustris First Needles 37.668820000000000 -122.080800000000000 67641
Wed Apr 27 00:00:00 GMT 2016 netzijulianna Longleaf pine Pinus palustris Pollen (None) 37.668820000000000 -122.080800000000000 67642
Wed Apr 27 00:00:00 GMT 2016 netzijulianna Longleaf pine Pinus palustris Fruit (None) 37.668820000000000 -122.080800000000000 67643
Sun May 01 00:00:00 GMT 2016 netzijulianna Longleaf pine Pinus palustris First Needles 37.668820000000000 -122.080800000000000 67644
Sun May 01 00:00:00 GMT 2016 netzijulianna Longleaf pine Pinus palustris Pollen (None) 37.668820000000000 -122.080800000000000 67645
Sun May 01 00:00:00 GMT 2016 netzijulianna Longleaf pine Pinus palustris Fruit (Early) 37.668820000000000 -122.080800000000000 67646
Sun May 08 00:00:00 GMT 2016 netzijulianna Longleaf pine Pinus palustris First Needles 37.668820000000000 -122.080800000000000 67647
Sun May 08 00:00:00 GMT 2016 netzijulianna Longleaf pine Pinus palustris Pollen (None) 37.668820000000000 -122.080800000000000 67648
Sun May 08 00:00:00 GMT 2016 netzijulianna Longleaf pine Pinus palustris Fruit (Early) 37.668820000000000 -122.080800000000000 67649
Tue May 17 00:00:00 GMT 2016 netzijulianna Longleaf pine Pinus palustris First Needles 37.668820000000000 -122.080800000000000 67659
Tue May 17 00:00:00 GMT 2016 netzijulianna Longleaf pine Pinus palustris Pollen (None) 37.668820000000000 -122.080800000000000 67660
Tue May 17 00:00:00 GMT 2016 netzijulianna Longleaf pine Pinus palustris Fruit (Middle) 37.668820000000000 -122.080800000000000 67661
Sat May 14 00:00:00 GMT 2016 netzijulianna Longleaf pine Pinus palustris First Needles 37.668820000000000 -122.080800000000000 67667
Sat May 14 00:00:00 GMT 2016 netzijulianna Longleaf pine Pinus palustris Pollen (None) 37.668820000000000 -122.080800000000000 67668
Sat May 14 00:00:00 GMT 2016 netzijulianna Longleaf pine Pinus palustris Fruit (Middle) 37.668820000000000 -122.080800000000000 67669
Fri May 20 00:00:00 GMT 2016 netzijulianna Longleaf pine Pinus palustris First Needles 37.668820000000000 -122.080800000000000 67672
Fri May 20 00:00:00 GMT 2016 netzijulianna Longleaf pine Pinus palustris Pollen (None) 37.668820000000000 -122.080800000000000 67673
Fri May 20 00:00:00 GMT 2016 netzijulianna Longleaf pine Pinus palustris Fruit (Middle) 37.668820000000000 -122.080800000000000 67674
Sun May 22 00:00:00 GMT 2016 netzijulianna Longleaf pine Pinus palustris First Needles 37.668820000000000 -122.080800000000000 67675
Sun May 22 00:00:00 GMT 2016 netzijulianna Longleaf pine Pinus palustris Pollen (None) 37.668820000000000 -122.080800000000000 67676
Sun May 22 00:00:00 GMT 2016 netzijulianna Longleaf pine Pinus palustris Fruit (Middle) 37.668820000000000 -122.080800000000000 67677
Mon Apr 18 00:00:00 GMT 2016 netzijulianna Longleaf pine Pinus palustris First Needles 37.668820000000000 -122.080800000000000 67678
Mon Apr 18 00:00:00 GMT 2016 netzijulianna Longleaf pine Pinus palustris Pollen (None) 37.668820000000000 -122.080800000000000 67679
Mon Apr 18 00:00:00 GMT 2016 netzijulianna Longleaf pine Pinus palustris Fruit (None) 37.668820000000000 -122.080800000000000 67680
Sat May 28 00:00:00 GMT 2016 netzijulianna Longleaf pine Pinus palustris First Needles 37.668820000000000 -122.080800000000000 68029
Sat May 28 00:00:00 GMT 2016 netzijulianna Longleaf pine Pinus palustris Pollen (None) 37.668820000000000 -122.080800000000000 68030
Sat May 28 00:00:00 GMT 2016 netzijulianna Longleaf pine Pinus palustris Fruit (Middle) 37.668820000000000 -122.080800000000000 68031
Tue Sep 20 00:00:00 GMT 2016 prohness Longleaf pine Pinus palustris First Needles (None) 32.803875000000000 -96.910025000000000 69952
Tue Sep 20 00:00:00 GMT 2016 prohness Longleaf pine Pinus palustris Pollen (Early) 32.803875000000000 -96.910025000000000 69953
Tue Sep 20 00:00:00 GMT 2016 prohness Longleaf pine Pinus palustris Fruit (Late) 32.803875000000000 -96.910025000000000 69954
Fri Sep 30 00:00:00 GMT 2016 FGCU-treecampususa Longleaf pine Pinus palustris First Needles (None) 26.464290000000000 -81.773110000000000 71464
Fri Sep 30 00:00:00 GMT 2016 FGCU-treecampususa Longleaf pine Pinus palustris Pollen (None) 26.464290000000000 -81.773110000000000 71465
Fri Sep 30 00:00:00 GMT 2016 FGCU-treecampususa Longleaf pine Pinus palustris Fruit (None) 26.464290000000000 -81.773110000000000 71466
Fri Sep 30 00:00:00 GMT 2016 FGCU-treecampususa Longleaf pine Pinus palustris First Needles (None) 26.464280000000000 -81.773110000000000 71467
Fri Sep 30 00:00:00 GMT 2016 FGCU-treecampususa Longleaf pine Pinus palustris Pollen (None) 26.464280000000000 -81.773110000000000 71468
Fri Sep 30 00:00:00 GMT 2016 FGCU-treecampususa Longleaf pine Pinus palustris Fruit (None) 26.464280000000000 -81.773110000000000 71469
Fri Sep 30 00:00:00 GMT 2016 FGCU-treecampususa Longleaf pine Pinus palustris First Needles (None) 26.464285000000000 -81.773096000000000 71470
Fri Sep 30 00:00:00 GMT 2016 FGCU-treecampususa Longleaf pine Pinus palustris Pollen (None) 26.464285000000000 -81.773096000000000 71471
Fri Sep 30 00:00:00 GMT 2016 FGCU-treecampususa Longleaf pine Pinus palustris Fruit (None) 26.464285000000000 -81.773096000000000 71472
Fri Sep 30 00:00:00 GMT 2016 FGCU-treecampususa Longleaf pine Pinus palustris First Needles (None) 26.464290000000000 -81.773120000000000 71473
Fri Sep 30 00:00:00 GMT 2016 FGCU-treecampususa Longleaf pine Pinus palustris Pollen (None) 26.464290000000000 -81.773120000000000 71474
Fri Sep 30 00:00:00 GMT 2016 FGCU-treecampususa Longleaf pine Pinus palustris Fruit (None) 26.464290000000000 -81.773120000000000 71475
Fri Sep 30 00:00:00 GMT 2016 FGCU-treecampususa Longleaf pine Pinus palustris First Needles (None) 26.464310000000000 -81.773160000000000 71476
Fri Sep 30 00:00:00 GMT 2016 FGCU-treecampususa Longleaf pine Pinus palustris Pollen (None) 26.464310000000000 -81.773160000000000 71477
Fri Sep 30 00:00:00 GMT 2016 FGCU-treecampususa Longleaf pine Pinus palustris Fruit (None) 26.464310000000000 -81.773160000000000 71478

*All downloadable materials require the free Adobe Reader.